Flag for Austria Weather past 2 weeks in Melk, Lower Austria, Austria

Now
46 °F

Cool.


Feels Like: 46 °F
Forecast: 41 / 80 °F
Wind: 1 mph from West

Location: Amstetten

Current Time: Aug 28, 2014 at 7:09:52 AM

Latest Report: Aug 28, 2014 at 6:00 AM


Visibility: N/A

Pressure: 30.15 "Hg

Humidity: 99%

Dew point: 45 °F

Location of MelkLocation

Historic Weather in Melk — Graph

°F

Melk temperature yesterday

Maximum temperature yesterday: 65 °F (at 9:00 AM)
Minimum temperature yesterday: 51 °F (at 11:00 PM)
Average temperature yesterday: 60 °F

Past Weeks' High & Low Weather Summary

 TemperatureHumidityPressure
High77 °F (Aug 18, 6:00 PM)99% (Aug 21, 4:00 AM)30.17 "Hg (Aug 21, 4:00 AM)
Low44 °F (Aug 25, 7:00 AM)36% (Aug 25, 4:00 PM)29.67 "Hg (Aug 13, 8:00 PM)
Average60 °F82%29.97 "Hg
* Reported Aug 13 7:00 AM — Aug 28 5:00 AM, Melk, Weather by CustomWeather, © 2014

Note: Actual official high and low records may vary slightly from our data, if they occured in-between our weather recording intervals... More about our weather records

Advertising

Melk weather history for previous 24 hours

 ConditionsComfort  
Time TempWeatherWind HumidityBarometerVisibility
5:00 AM
Aug 28
46 °FCool.No wind99%30.14 "HgN/A
4:00 AM47 °FCool.No wind99%30.14 "HgN/A
3:00 AM48 °FCool.1 mph99%30.14 "HgN/A
2:00 AM49 °FCool.1 mph98%30.13 "HgN/A
1:00 AM49 °FCool.1 mph98%30.13 "HgN/A
12:00 AM51 °FCool.1 mph97%30.12 "HgN/A
11:00 PM
Aug 27
51 °FCool.No wind97%30.11 "HgN/A
10:00 PM55 °FCool.1 mph92%30.10 "HgN/A
9:00 PM56 °FCool.2 mph87%30.09 "HgN/A
7:00 PM62 °FCool.3 mph77%30.03 "HgN/A
5:00 PM60 °FCool.3 mph84%30.01 "HgN/A
4:00 PM59 °FCool.3 mph87%30.00 "HgN/A
3:00 PM58 °FCool.5 mph92%29.98 "HgN/A
2:00 PM59 °FCool.5 mph91%29.96 "HgN/A
1:00 PM58 °FCool.5 mph92%29.95 "HgN/A
12:00 PM58 °FSprinkles. Cloudy.2 mph90%29.92 "HgN/A
11:00 AM62 °FCool.5 mph74%29.87 "HgN/A
10:00 AM63 °FFog.5 mph82%29.83 "HgN/A
9:00 AM65 °FMild.5 mph69%29.81 "HgN/A
8:00 AM64 °FPassing clouds.2 mph76%29.80 "HgN/A
7:00 AM61 °FCool.1 mph87%29.78 "HgN/A
Weather by CustomWeather, © 2014

See weather overviewHow to use our weather pages